Zurück zum Katalog

STARLINK-36166

AktivKommunikationVLEO
NORAD 67084·PAYLOAD·🇺🇸 United States

Gestartet Dec 14, 2025 von Vandenberg Space Force Base

Loading…

Nächste Überflüge (nächste 24 Stunden)

TLE

AktuellSource: CelesTrak SupGP

Epoche: Sep 14, 2026, 14:21 UTC

1 67084C 25298K   26257.59840278 -.00046724  00000+0 -39151-2 0  2578
2 67084  69.9990 258.2958 0003903 274.4872 326.0032 14.98357425    12

Verfolge STARLINK-36166 in Echtzeit mit AllMySat

Download on the App Store